Dewpoint
-8 -9 -10 -11 -11 -6 -3 -3 -3 -3 -3 -3 -3 -3 -2 -4 -4 -4 -4 -4 -4 -4 -5 -6 -3 -2 -1 -2 -2 0 1 3 2 4 2 2 -1 -1 -2 -3 -3 -4 -4 -5 -5
-10 -11 -13 -12 -8 -3 -3 -4 -4 -3 -3 -3 -4 -5 -6 -5 -3 -5 -5 -5 -5 -5 -6 -6 -6 -3 -1 -3 -4 0 2 1 -0 1 0 2 -1 -3 -3 -4 -5 -4 -4 -5 -5
-16 -14 -11 -8 -4 -2 -3 -4 -5 -4 -4 -4 -4 -6 -6 -3 -3 -5 -7 -7 -7 -7 -8 -7 -6 -5 -2 -4 -4 -2 1 -2 -4 -3 -2 1 -1 -3 -3 -4 -3 -3 -3 -4 -5
-15 -10 -8 -5 -3 -3 -4 -4 -5 -5 -5 -5 -5 -6 -6 -4 -3 -6 -8 -8 -8 -8 -9 -8 -5 -4 -4 -3 -3 -3 -3 -3 -4 -2 -1 -1 -1 -3 -3 -2 -3 -4 -4 -4 -5
-12 -9 -6 -3 -3 -4 -4 -5 -5 -6 -6 -6 -6 -7 -7 -4 -4 -5 -8 -8 -8 -7 -8 -8 -5 -4 -4 -4 -4 -4 -4 -4 -4 -2 -2 -2 -3 -3 -4 -3 -4 -5 -5 -5 -5
-11 -8 -5 -4 -4 -4 -5 -5 -6 -6 -7 -7 -7 -7 -7 -5 -5 -5 -8 -7 -7 -7 -7 -5 -5 -4 -4 -4 -3 -4 -4 -5 -5 -4 -4 -4 -4 -4 -5 -6 -5 -5 -5 -5 -5
-10 -7 -6 -5 -4 -4 -5 -6 -6 -6 -7 -7 -7 -7 -4 -5 -5 -6 -7 -6 -6 -7 -7 -6 -5 -5 -5 -5 -5 -5 -6 -5 -5 -5 -5 -5 -4 -4 -6 -6 -6 -5 -5 -5 -5
-7 -7 -5 -4 -4 -4 -5 -5 -5 -6 -6 -6 -6 -6 -4 -5 -7 -6 -6 -5 -6 -6 -6 -5 -5 -5 -5 -5 -5 -4 -4 -2 -4 -5 -5 -5 -3 -8 -7 -6 -6 -5 -5 -5 -5
-5 -5 -4 -4 -4 -4 -4 -5 -5 -5 -6 -6 -6 -5 -5 -5 -6 -6 -6 -6 -7 -5 -5 -4 -5 -6 -5 -4 -3 -2 -3 -2 -3 -5 -5 -5 -4 -7 -5 -5 -5 -6 -5 -5 -5
-4 -4 -4 -4 -4 -4 -4 -5 -6 -5 -6 -6 -6 -6 -5 -5 -5 -6 -6 -7 -7 -7 -6 -5 -4 -3 -5 -3 -7 -4 -1 -4 -3 -5 -5 -4 -4 -5 -6 -6 -5 -6 -6 -6 -6
-3 -4 -4 -3 -3 -4 -5 -4 -3 -4 -5 -6 -5 -5 -5 -5 -7 -7 -6 -6 -6 -5 -5 -5 -5 -4 -5 -5 -7 -8 -7 -7 -8 -4 -4 -3 -3 -4 -5 -5 -6 -6 -6 -6 -6
-4 -4 -4 -4 -4 -5 -4 -4 -6 -2 -6 -5 -7 -6 -6 -6 -7 -6 -6 -6 -6 -6 -7 -6 -5 -7 -8 -8 -8 -8 -7 -6 -7 -4 -3 -3 -3 -6 -7 -6 -6 -6 -6 -6 -6
-4 -4 -4 -4 -5 -4 -6 -6 -4 -4 -4 -5 -6 -6 -6 -6 -6 -6 -6 -6 -6 -6 -7 -6 -7 -7 -7 -7 -6 -7 -6 -6 -6 -6 -5 -4 -2 -5 -6 -6 -6 -6 -7 -7 -7
-4 -4 -4 -4 -3 -2 -4 -4 -4 -4 -4 -6 -6 -6 -6 -6 -7 -6 -6 -8 -5 -6 -7 -6 -6 -6 -6 -6 -7 -7 -7 -6 -6 -5 -4 -5 0 -4 -6 -5 -6 -6 -6 -7 -8
-3 -4 -4 -4 -1 -2 -0 -4 -4 -3 -4 -6 -5 -5 -5 -5 -6 -5 -6 -7 -7 -5 -6 -5 -6 -5 -5 -6 -8 -7 -5 -6 -5 -3 -2 -3 -2 -4 -5 -5 -5 -6 -8 -9 -9
-3 -3 -4 -4 -1 -2 -4 -4 -1 -1 -1 -4 -4 -5 -5 -5 -5 -5 -5 -6 -5 -5 -5 -5 -6 -7 -7 -7 -8 -6 -6 -3 -2 -2 1 -2 -2 -2 -6 -6 -6 -6 -7 -9 -10
-2 -2 -3 -4 -3 -3 -4 -4 -1 0 -5 -3 -4 -4 -4 -4 -4 -4 -5 -5 -5 -4 -5 -5 -4 -6 -6 -6 -6 -6 -5 -4 -0 2 2 -3 -2 -2 -5 -7 -7 -7 -7 -7 -10
-5 -2 -2 -3 -3 -4 -4 -1 0 -3 -2 -4 -4 -4 -3 -5 -5 -4 -4 -3 -5 -5 -4 -4 -5 -4 -6 -7 -7 -5 -5 -3 0 -1 -2 -5 -1 -3 -7 -8 -8 -8 -8 -8 -8
-4 -4 -2 -3 -3 -3 -2 -2 -4 -3 -4 -3 -3 -2 -3 -4 -4 -4 -3 -3 -5 -5 -4 -5 -4 -5 -6 -8 -7 -6 -3 -6 -3 -4 -1 -3 -5 -7 -8 -8 -8 -8 -8 -8 -8
-4 -3 -2 -1 -1 -2 -2 -2 -3 -3 -4 -4 -4 -3 -2 -3 -3 -4 -4 -5 -4 -6 -7 -6 -4 -5 -5 -7 -7 -6 -7 -4 -3 -2 -2 -3 -3 -4 -8 -9 -9 -7 -8 -8 -8
-3 -2 -0 0 0 -2 -1 -2 -3 -2 -3 -3 -4 -2 -3 -3 -3 -3 -3 -4 -4 -5 -7 -7 -7 -6 -5 -4 -4 -6 -6 -5 -4 -2 -0 -1 -4 -8 -8 -9 -8 -8 -9 -8 -8
-2 -2 1 1 -1 0 -0 -1 -3 -2 -2 -2 -2 -2 -2 -3 -2 -2 -2 -4 -4 -6 -6 -7 -7 -5 -7 -7 -7 -8 -7 -6 -4 -6 -2 -2 -2 -8 -8 -8 -8 -8 -9 -9 -8
-1 1 2 -0 0 0 -0 -1 -2 -2 -2 -2 -2 -2 -2 -2 -1 -2 -2 -3 -4 -6 -6 -6 -5 -4 -4 -5 -7 -6 -6 -7 -6 -4 -3 -3 -4 -10 -9 -9 -9 -8 -9 -9 -8
-4 1 3 1 1 -0 1 0 0 -1 -1 -1 -2 -1 -0 0 -1 -1 -2 -3 -3 -5 -4 -7 -5 -6 -2 -4 -4 -5 -6 -5 -5 -3 -4 -3 -5 -7 -8 -8 -8 -9 -9 -9 -10
-3 0 4 3 3 2 1 -0 0 -0 -0 -1 -1 -0 0 1 -0 0 -1 -2 -3 -3 -4 -5 -2 -4 -4 -5 -5 -4 -4 -4 -4 -5 -3 -4 -5 -7 -7 -8 -8 -8 -8 -8 -9
-1 3 3 2 2 3 2 2 2 1 0 -0 0 -1 -0 0 -1 -1 -1 -1 -1 -2 -4 -4 -2 -2 -1 -2 -2 -2 -3 -3 -3 -3 -4 -4 -4 -6 -7 -7 -8 -8 -8 -8 -9
5 3 2 0 -1 2 2 2 1 1 0 -0 -1 -0 0 0 -1 -1 -1 -1 -2 -2 -2 -3 -2 -1 1 -2 -2 0 -2 -3 -4 -4 -4 -3 -5 -7 -7 -7 -7 -8 -8 -8 -8
Wind_Speed
7 6 6 7 10 12 10 7 6 4 4 5 4 4 4 7 7 2 4 2 3 4 4 3 3 2 3 3 2 1 4 2 5 7 5 10 7 7 7 7 13 12 12 8 8
7 6 8 10 13 12 8 6 4 3 3 3 2 1 2 4 4 4 3 3 4 6 5 5 2 4 2 3 2 3 4 7 5 5 4 13 10 14 7 9 13 18 19 15 14
8 10 11 12 12 9 7 5 3 2 3 2 2 3 5 5 3 3 5 6 6 8 8 7 5 2 1 3 4 2 4 2 4 5 6 13 9 12 9 6 17 22 25 20 21
9 11 12 12 10 7 5 3 2 1 3 3 4 5 5 4 2 4 7 7 7 8 10 8 4 3 2 1 1 1 1 2 2 4 7 8 8 6 19 19 11 15 18 23 25
10 10 11 10 7 5 3 2 1 2 3 4 6 6 6 5 4 7 7 7 6 7 8 6 5 5 4 3 1 2 2 2 1 5 4 7 10 14 20 26 25 15 17 23 25
9 9 10 8 6 4 3 3 3 4 4 5 6 6 5 4 6 7 7 7 6 3 3 2 3 5 7 2 2 2 1 1 3 2 3 4 4 3 11 12 26 26 23 22 25
8 8 8 7 5 3 3 4 4 4 5 6 6 6 6 7 7 8 5 4 5 6 1 2 2 1 7 4 4 6 1 4 6 5 2 3 8 12 28 17 15 25 25 25 27
7 8 7 6 5 3 4 5 5 5 5 6 6 6 5 6 6 5 4 3 4 3 2 3 3 4 2 9 3 3 3 3 2 7 2 4 10 8 13 21 22 23 25 26 27
6 6 5 5 5 4 5 5 4 4 7 7 6 5 5 5 5 5 5 4 5 3 3 2 1 4 4 4 4 5 3 3 7 13 3 5 9 5 6 13 22 24 26 28 29
6 5 4 4 5 5 5 5 5 7 7 7 7 4 6 3 4 5 4 5 4 5 3 3 1 3 3 4 3 3 4 5 6 4 4 4 18 16 22 17 25 27 28 30 32
4 3 2 3 5 5 5 5 5 4 8 5 2 5 3 4 7 5 4 5 4 2 0 1 3 5 8 7 3 2 4 6 5 3 4 8 16 21 20 19 27 33 34 34 36
2 2 2 3 5 6 4 3 2 2 6 8 8 10 9 7 4 6 6 3 1 2 0 4 6 6 3 4 4 4 4 6 6 2 5 8 16 18 14 15 27 35 35 37 35
2 2 2 3 4 2 2 1 3 4 2 4 7 6 4 4 3 3 4 2 3 2 4 6 3 4 3 2 3 3 5 4 5 5 4 7 10 6 3 9 19 25 30 31 34
3 3 3 3 2 1 1 3 5 3 4 4 2 2 3 2 3 5 5 3 2 4 3 5 1 3 2 3 6 4 4 2 3 3 4 4 6 7 4 8 6 23 26 29 29
5 5 4 2 2 3 2 3 6 2 3 2 2 2 2 3 5 2 4 2 3 3 3 6 4 4 4 5 6 6 1 1 0 1 3 1 1 8 4 7 12 20 28 28 28
6 5 5 4 2 1 2 3 2 5 4 1 1 1 1 2 2 2 2 3 2 2 2 7 2 5 7 2 2 3 2 4 4 2 2 5 6 6 5 8 6 10 30 28 26
7 6 4 3 3 2 2 1 5 3 2 2 2 3 2 2 2 3 1 2 3 2 3 4 4 1 2 2 2 3 5 4 4 2 6 2 3 10 11 9 7 9 18 28 27
7 7 5 5 4 3 0 4 2 3 5 0 1 0 3 2 3 1 2 3 4 3 1 2 6 6 3 4 5 5 6 5 5 3 5 2 6 7 8 11 16 21 28 23 26
6 6 7 7 5 3 3 2 6 6 2 2 0 1 2 1 2 1 4 4 5 8 7 3 5 1 1 1 2 3 4 2 1 1 2 5 8 10 9 9 12 22 18 26 27
4 6 9 8 7 4 2 5 4 3 1 1 2 4 3 2 1 1 2 4 2 4 0 2 5 1 1 1 1 3 3 2 2 4 6 6 5 7 9 9 9 9 20 28 27
3 4 4 7 8 5 3 6 4 5 2 3 2 2 4 3 4 3 4 4 3 3 4 4 3 3 2 6 7 2 3 2 2 5 4 4 6 6 7 8 9 12 21 26 31
2 1 3 7 4 1 3 4 2 3 3 2 2 6 5 2 3 5 7 6 2 5 4 1 4 4 10 1 3 4 6 6 4 5 5 2 10 8 12 9 13 25 27 26 27
2 3 5 7 3 2 4 4 3 2 3 3 3 6 3 4 3 6 3 1 3 4 5 4 1 4 9 1 2 4 5 5 2 3 7 4 11 3 8 11 21 17 24 26 24
2 2 2 5 2 4 1 3 3 2 3 3 2 2 1 3 4 5 3 0 2 3 4 4 4 7 12 10 3 4 5 5 5 2 9 9 32 23 27 24 29 25 33 34 31
1 2 1 2 2 2 3 1 2 2 2 3 1 5 7 3 2 5 4 2 2 1 2 3 6 6 11 14 10 13 11 9 10 17 11 32 25 25 27 25 31 30 34 35 34
2 2 2 2 3 2 1 2 4 3 4 4 5 4 5 6 8 8 4 1 5 1 4 0 5 3 8 9 11 16 9 16 20 23 17 25 30 27 41 40 30 28 33 32 33
5 4 2 2 1 3 4 4 1 6 4 4 4 1 3 10 18 19 18 14 10 8 8 6 4 2 18 1 6 9 9 18 12 6 5 8 21 22 17 18 18 28 25 30 30
Wind_Direction
173 174 176 162 148 149 148 145 133 121 130 131 110 75 61 88 73 80 85 32 360 334 354 7 32 282 332 16 47 127 66 201 216 155 238 170 163 186 208 197 197 209 229 237 210
160 166 162 154 149 150 150 147 128 131 143 151 121 25 360 301 294 17 356 341 323 314 316 324 306 344 267 346 19 96 125 224 185 191 208 186 182 177 183 202 221 229 232 233 222
165 153 152 150 149 151 155 154 134 140 175 217 244 309 323 325 289 324 335 311 307 307 304 294 289 273 216 345 6 93 194 199 214 231 236 191 197 189 189 227 222 230 229 226 220
154 148 149 152 154 159 168 164 148 191 224 239 261 293 308 328 244 318 326 313 297 302 301 280 250 193 111 52 33 360 287 234 253 236 175 177 188 215 215 233 252 255 250 232 223
155 147 151 157 166 169 192 228 244 257 265 258 261 277 287 269 280 308 329 335 306 294 303 263 220 178 155 121 52 119 228 273 282 191 209 202 219 222 248 245 245 253 238 231 229
155 149 157 166 178 186 224 240 256 269 271 269 271 273 269 271 275 297 318 335 349 317 321 247 221 167 122 92 158 132 146 266 246 206 224 210 253 219 260 256 239 243 244 237 236
160 158 166 174 182 212 239 234 242 250 262 269 273 269 264 267 282 292 302 318 4 34 343 53 155 131 132 111 111 119 336 308 227 215 258 240 280 233 249 252 243 236 238 239 238
161 165 174 188 202 234 241 250 245 235 255 266 265 273 271 265 278 287 312 319 331 357 7 26 80 120 98 120 63 14 63 349 202 167 231 140 269 262 260 239 240 237 235 238 239
161 163 185 200 229 257 266 269 246 250 250 264 261 254 269 259 269 284 292 303 309 268 288 297 263 94 120 85 13 12 261 231 310 199 134 182 272 254 241 231 243 241 237 238 241
167 182 189 220 247 276 284 269 274 273 248 261 250 266 244 264 263 269 269 292 294 291 268 224 94 73 40 82 236 265 274 262 252 217 210 220 262 264 260 258 246 246 243 242 244
172 176 196 244 269 293 292 298 284 245 233 231 223 244 272 269 281 253 260 298 279 256 245 33 60 233 227 199 190 212 217 259 261 211 191 240 258 269 262 241 247 248 246 246 248
186 206 236 276 280 299 312 314 328 282 299 247 249 259 263 279 286 250 261 291 244 244 234 8 240 236 199 167 207 228 275 271 273 161 186 284 272 268 249 235 239 245 247 248 251
212 228 260 283 261 280 53 48 351 337 288 275 233 255 244 246 254 253 244 256 232 246 207 184 241 146 169 208 218 241 209 247 246 326 245 318 284 304 285 245 248 246 249 253 253
221 240 247 286 230 235 204 41 12 342 57 274 233 244 219 237 279 244 248 237 253 236 219 229 284 189 208 253 156 272 192 208 290 18 269 42 289 304 314 282 247 248 239 245 248
226 238 242 244 253 246 251 347 348 21 356 191 196 186 206 211 316 238 235 234 233 234 113 254 186 204 212 218 170 232 110 280 298 210 356 256 235 271 337 280 252 244 239 243 246
230 235 247 238 267 251 280 316 11 46 259 278 139 310 330 217 238 260 251 238 267 289 260 238 219 185 207 146 159 118 57 44 58 74 297 232 176 269 223 221 257 241 239 240 246
245 242 240 236 232 299 294 311 35 149 332 214 227 185 214 251 273 187 228 274 198 339 324 318 231 164 164 127 51 82 57 322 325 345 232 123 184 253 279 251 236 255 254 239 237
248 245 240 233 235 259 215 54 198 244 224 285 116 146 230 180 249 235 288 282 215 134 52 256 314 184 167 203 185 180 161 170 257 242 276 313 244 254 241 286 262 270 263 264 241
259 242 240 233 224 224 180 105 215 213 212 173 62 131 284 275 231 344 222 230 229 179 178 180 273 85 122 50 129 171 195 208 244 40 19 240 289 295 287 284 269 265 262 247 241
245 239 234 222 212 204 106 231 237 231 138 76 223 175 236 253 228 163 248 215 258 192 126 255 300 80 69 110 63 173 167 55 16 274 265 279 278 246 297 304 313 283 258 254 248
221 222 205 207 202 198 183 228 266 237 210 167 238 280 239 264 215 224 257 274 185 158 157 158 149 286 19 204 190 116 251 201 157 172 233 277 256 224 256 261 275 276 284 277 270
223 307 187 178 160 110 176 211 262 229 211 217 195 203 215 205 251 236 227 226 140 152 170 223 158 257 230 250 156 174 210 164 162 247 240 210 263 255 246 263 270 284 289 295 286
308 264 205 189 171 244 280 278 258 196 229 188 245 212 180 206 251 207 244 158 164 154 178 186 254 330 328 42 7 220 209 199 104 69 218 261 273 295 288 287 278 278 294 292 287
303 360 223 199 190 149 200 262 272 308 254 206 233 146 138 251 228 284 264 182 201 197 186 166 186 201 253 247 176 220 221 195 174 180 274 220 277 283 283 283 287 283 285 288 293
228 244 189 274 284 217 198 266 239 283 223 224 274 216 189 236 256 239 256 294 223 228 157 165 229 215 248 258 263 263 260 243 208 236 236 274 263 284 279 287 292 294 296 296 301
206 180 180 260 283 212 228 273 222 268 213 252 207 263 189 218 210 254 210 156 233 42 174 215 257 239 271 253 253 266 250 249 252 258 253 265 283 266 277 280 287 286 289 295 304
197 203 232 255 106 121 222 226 10 10 291 275 266 275 242 248 268 272 276 258 237 174 200 180 208 180 277 291 320 290 219 230 246 211 214 253 269 293 295 306 292 299 307 307 316
Height
1552 1553 1555 1556 1556 1558 1560 1561 1561 1561 1561 1561 1561 1562 1561 1560 1560 1560 1558 1559 1558 1557 1556 1555 1554 1555 1555 1553 1553 1553 1564 1572 1564 1569 1560 1559 1561 1562 1563 1563 1563 1562 1561 1561 1562
1551 1553 1555 1557 1557 1559 1561 1562 1561 1562 1562 1562 1562 1562 1562 1561 1560 1560 1560 1558 1558 1557 1556 1554 1554 1554 1554 1554 1553 1553 1564 1560 1555 1556 1556 1556 1558 1559 1562 1561 1560 1559 1558 1559 1560
1554 1554 1556 1558 1559 1561 1562 1563 1562 1563 1563 1563 1563 1563 1562 1562 1561 1560 1558 1558 1557 1556 1555 1553 1553 1553 1553 1554 1554 1554 1558 1555 1554 1554 1554 1555 1557 1559 1558 1559 1552 1550 1554 1556 1557
1554 1555 1556 1558 1560 1562 1563 1563 1563 1563 1563 1562 1563 1563 1562 1562 1565 1559 1558 1556 1556 1555 1555 1553 1551 1552 1553 1554 1554 1556 1555 1555 1554 1553 1553 1554 1554 1554 1553 1547 1549 1550 1552 1552 1552
1555 1555 1557 1560 1562 1563 1564 1564 1563 1564 1563 1562 1563 1563 1563 1562 1561 1560 1558 1556 1555 1554 1554 1552 1550 1550 1552 1554 1555 1555 1555 1555 1553 1553 1553 1553 1553 1553 1545 1546 1547 1547 1548 1548 1549
1556 1556 1558 1561 1563 1563 1564 1564 1563 1563 1562 1562 1562 1561 1562 1562 1559 1559 1557 1557 1555 1553 1553 1552 1550 1549 1551 1554 1555 1555 1555 1555 1554 1553 1553 1553 1553 1552 1539 1539 1542 1543 1544 1545 1546
1556 1557 1560 1562 1563 1563 1564 1564 1563 1562 1562 1562 1561 1560 1560 1560 1558 1557 1556 1556 1556 1554 1553 1552 1551 1550 1551 1553 1556 1555 1556 1555 1552 1553 1553 1553 1552 1544 1534 1537 1538 1538 1539 1541 1541
1557 1558 1561 1562 1563 1563 1563 1563 1562 1561 1561 1561 1561 1560 1558 1557 1557 1557 1556 1555 1555 1554 1554 1553 1552 1551 1552 1554 1556 1558 1558 1561 1550 1552 1553 1554 1549 1532 1531 1533 1532 1534 1535 1535 1535
1558 1558 1561 1562 1563 1563 1562 1562 1560 1561 1560 1561 1561 1560 1558 1556 1556 1556 1556 1555 1554 1554 1554 1552 1552 1553 1554 1557 1563 1563 1565 1561 1554 1550 1552 1553 1543 1530 1529 1529 1529 1529 1529 1529 1530
1559 1560 1560 1561 1562 1562 1561 1561 1559 1560 1560 1560 1559 1561 1557 1556 1555 1555 1554 1554 1553 1553 1553 1552 1552 1555 1557 1561 1572 1563 1565 1560 1559 1550 1552 1552 1541 1527 1527 1527 1524 1524 1524 1524 1524
1560 1559 1560 1561 1562 1562 1561 1561 1562 1561 1559 1556 1557 1556 1554 1554 1554 1555 1553 1553 1552 1552 1554 1552 1557 1561 1554 1553 1553 1554 1558 1559 1551 1546 1550 1546 1538 1522 1520 1520 1517 1516 1516 1516 1516
1558 1559 1560 1561 1561 1562 1560 1560 1560 1561 1557 1553 1554 1555 1554 1553 1553 1553 1553 1553 1552 1554 1553 1557 1559 1548 1548 1549 1551 1553 1555 1557 1548 1545 1549 1542 1531 1515 1510 1506 1504 1504 1506 1507 1509
1558 1558 1560 1561 1563 1560 1560 1560 1559 1558 1557 1552 1552 1553 1552 1553 1551 1551 1553 1551 1551 1553 1553 1557 1548 1546 1547 1549 1552 1552 1555 1553 1552 1547 1545 1545 1530 1511 1499 1499 1498 1498 1499 1500 1500
1557 1560 1561 1563 1562 1559 1561 1559 1558 1557 1563 1555 1552 1551 1551 1551 1550 1550 1551 1552 1551 1552 1551 1552 1547 1547 1548 1550 1553 1554 1546 1546 1548 1553 1559 1547 1554 1518 1503 1500 1495 1491 1493 1492 1493
1559 1559 1561 1560 1558 1560 1560 1559 1558 1556 1582 1553 1550 1550 1550 1551 1550 1549 1550 1549 1550 1549 1551 1550 1546 1548 1549 1546 1546 1550 1546 1547 1548 1553 1556 1551 1557 1518 1506 1499 1490 1483 1484 1485 1487
1558 1559 1559 1558 1558 1559 1558 1558 1558 1569 1578 1553 1549 1550 1551 1549 1548 1548 1549 1550 1549 1548 1547 1545 1543 1543 1541 1542 1543 1545 1547 1552 1556 1559 1563 1545 1547 1519 1506 1490 1482 1477 1478 1480 1482
1557 1557 1557 1557 1558 1558 1558 1559 1570 1578 1553 1552 1550 1551 1551 1549 1548 1548 1548 1550 1554 1554 1553 1546 1542 1540 1540 1543 1545 1547 1555 1566 1560 1562 1555 1542 1548 1512 1487 1482 1478 1474 1473 1474 1478
1555 1555 1555 1556 1557 1557 1557 1561 1574 1558 1555 1547 1549 1550 1553 1548 1548 1548 1549 1553 1546 1549 1557 1559 1552 1541 1540 1541 1544 1551 1553 1566 1557 1559 1552 1541 1539 1500 1478 1474 1472 1471 1470 1471 1472
1552 1552 1553 1555 1556 1556 1559 1572 1564 1556 1548 1549 1550 1553 1552 1549 1550 1549 1550 1551 1544 1544 1554 1559 1550 1539 1540 1541 1543 1550 1555 1548 1553 1557 1565 1536 1516 1489 1473 1471 1468 1467 1466 1464 1465
1551 1553 1553 1554 1554 1556 1558 1563 1555 1549 1547 1548 1552 1551 1553 1551 1551 1551 1550 1542 1540 1541 1543 1546 1554 1541 1542 1542 1544 1545 1546 1553 1562 1555 1552 1536 1528 1501 1478 1471 1468 1464 1463 1460 1461
1551 1551 1551 1551 1554 1555 1561 1558 1549 1547 1547 1549 1550 1552 1552 1551 1552 1552 1546 1540 1538 1541 1542 1545 1551 1547 1543 1545 1543 1551 1550 1549 1553 1557 1551 1546 1517 1485 1479 1471 1469 1462 1460 1458 1457
1549 1550 1549 1550 1554 1554 1555 1551 1548 1545 1546 1546 1546 1548 1549 1548 1549 1552 1548 1540 1539 1540 1544 1545 1553 1554 1541 1534 1535 1537 1539 1543 1550 1543 1555 1552 1518 1476 1470 1465 1465 1460 1459 1456 1453
1548 1548 1548 1549 1554 1555 1550 1548 1546 1545 1545 1545 1546 1546 1546 1547 1550 1545 1540 1539 1538 1539 1542 1544 1552 1557 1540 1537 1535 1535 1533 1535 1539 1544 1539 1538 1491 1468 1465 1463 1461 1460 1456 1453 1451
1548 1548 1547 1547 1548 1549 1549 1548 1547 1544 1544 1544 1544 1544 1546 1546 1546 1544 1541 1538 1539 1539 1540 1541 1548 1544 1539 1528 1525 1531 1528 1531 1533 1542 1517 1519 1474 1474 1463 1461 1452 1454 1451 1449 1446
1547 1547 1547 1549 1548 1548 1548 1547 1546 1545 1543 1543 1543 1543 1545 1548 1546 1547 1542 1540 1540 1540 1541 1542 1546 1542 1530 1525 1524 1523 1524 1524 1528 1512 1517 1472 1481 1469 1457 1453 1448 1446 1444 1442 1438
1546 1546 1547 1547 1547 1549 1549 1548 1546 1543 1543 1542 1543 1539 1542 1546 1541 1542 1540 1539 1538 1541 1541 1542 1540 1535 1525 1523 1523 1519 1519 1513 1507 1497 1496 1486 1476 1460 1453 1448 1444 1443 1440 1436 1432
1544 1545 1546 1546 1546 1548 1547 1544 1544 1544 1541 1540 1541 1540 1540 1538 1535 1534 1534 1533 1531 1533 1536 1539 1538 1538 1513 1518 1522 1516 1507 1495 1482 1481 1483 1486 1462 1449 1449 1446 1441 1436 1436 1432 1428